User: anonymous   Login
Location: Most
(50.5133°N, 13.6207°E)
Time: 08:47:08
(UTC+01:00)
Language:

Oscar 11 - Orbit

View from above orbital plane
View from above orbital plane
View from above satellite
View from above satellite

Ground track
Ground track

The orbit data is extracted from the following two-line orbital elements,

1 14781U 84021B   21339.93858702  .00000234  00000-0  34635-4 0  9990
2 14781  97.6029 331.4323 0007173 231.7006 128.3565 14.83377935 11352
Epoch (UTC): 05 December 2021 22:31:33
Eccentricity: 0.0007173
inclination: 97.6029°
perigee height: 613 km
apogee height: 624 km
right ascension of ascending node: 331.4323°
argument of perigee: 231.7006°
revolutions per day: 14.83377935
mean anomaly at epoch: 128.3565°
orbit number at epoch: 1135

The dashed part of the orbit path shows where the satellite is in the earth's shadow,  

DLR